Location: Moscow
(55.7500°N, 37.5830°E)
Time: 17:07:27
(UTC+03:00)

Transit 2A - Pass Details

Date: 01 December 2021
Orbit: 591 x 967 km, 66.7° (Epoch: 21 January)

Event Time Altitude Azimuth Distance (km) Brightness Sun altitude
Rises 05:09:01 0° 281° (W) 3,508 - -27.6°
Reaches altitude 10° 05:11:46 10° 292° (WNW) 2,616 - -27.2°
Exits shadow 05:16:36 31° 343° (NNW) 1,618 7.5 -26.5°
Maximum altitude 05:17:12 31° 353° (N) 1,606 7.5 -26.5°
Drops below altitude 10° 05:22:50 10° 55° (NE) 2,715 9.5 -25.7°
Sets 05:25:45 0° 65° (ENE) 3,662 10.5 -25.3°
